Regional Weather Roundup
Issued by NWS

Home | Current Version | Previous Version | Graphics & Text | Print | Product List | Glossary On
Versions: 1 2 3 4 5 6 7 8 9 10 11 12 13 14 15 16 17 18 19 20 21 22 23 24 25 26 27 28 29 30 31 32 33 34 35 36 37 38 39 40 41 42 43 44 45 46 47 48 49 50
000
ASUS43 KDTX 262101
RWRMI
MICHIGAN HOURLY REGIONAL WEATHER ROUNDUP
NATIONAL WEATHER SERVICE DETROIT/PONTIAC MI
500 PM EDT FRI AUG 26 2016

NOTE: "FAIR" INDICATES FEW OR NO CLOUDS BELOW 12,000 FEET WITH NO
SIGNIFICANT WEATHER AND/OR OBSTRUCTION TO VISIBILITY.

MIZ047>049-052>055-059>063-066>070-074>076-081>083-262200-
SOUTHEAST LOWER MICHIGAN

CITY           SKY/WX    TMP DP  RH WIND       PRES   REMARKS
ADRIAN         SUNNY     83  63  50 VRB3      30.12F
ALMA           SUNNY     80  62  54 W9        30.12S
ANN ARBOR      SUNNY     84  60  44 SW7       30.12F
BAD AXE        PTSUNNY   79  62  56 W6        30.12S
CARO           SUNNY     80  65  59 W6        30.11S
DETROIT CITY   SUNNY     85  58  39 W8        30.11S
DETROIT        MOSUNNY   85  61  44 W5        30.11F
FLINT          SUNNY     84  60  44 NW10G17   30.12S
GROSSE ILE     SUNNY     80  68  66 S7        30.10F
HILLSDALE      SUNNY     82  60  48 CALM      30.13F
HOWELL         SUNNY     82  59  46 NW3       30.13F

CITY           SKY/WX    TMP DP  RH WIND       PRES   REMARKS
JACKSON        SUNNY     81  62  52 VRB3      30.13F
LAMBERTVILLE   SUNNY     85  60  43 N5        30.12F
LANSING        SUNNY     82  59  45 W6        30.13S
LAPEER         FAIR      82  58  43 W7        30.12S
MASON          SUNNY     81  60  48 W7        30.13S
MONROE         SUNNY     85  65  51 CALM      30.10F
MT. CLEMENS    MOSUNNY   82  66  57 SE7       30.09F
PONTIAC        MOSUNNY   82  60  47 W10       30.12S
PORT HURON     SUNNY     81  61  50 W3        30.11F
TRI CITIES     SUNNY     80  63  55 SW10      30.11F
MIDLAND        FAIR      80  61  51 SW7       30.10S
TROY           SUNNY     86  55  34 CALM      30.13S
SAGINAW HB     SUNNY     81  59  47 SW8       30.10F
$$
MIZ043>046-050>051-056>058-064>065-071>073-077>080-262200-
SOUTHWEST LOWER MICHIGAN

CITY           SKY/WX    TMP DP  RH WIND       PRES   REMARKS
BATTLE CREEK   SUNNY     79  64  60 W6        30.13F
BENTON HARBOR  SUNNY     77  62  59 VRB5      30.12F
BIG RAPIDS     SUNNY     78  52  40 W9        30.13S
COLDWATER      SUNNY     83  59  44 CALM      30.13S
FREMONT        FAIR      76  53  44 W7        30.14S
HOLLAND        SUNNY     76  60  57 NW5       30.14F
GRAND RAPIDS   MOSUNNY   80  59  48 NW7       30.13F
IONIA          FAIR      81  59  46 W7        30.12S
KALAMAZOO      SUNNY     83  60  45 NW6       30.12F
LUDINGTON      MOSUNNY   71  59  64 NW7       30.14F
MARSHALL       SUNNY     82  64  54 W5        30.12F
MOUNT PLEASANT MOSUNNY   81  61  50 W8        30.11S
MUSKEGON       MOSUNNY   74  58  57 W8        30.14F
SOUTH HAVEN    SUNNY     77  63  60 NW7       30.14S
$$
MIZ016>042-262200-
NORTHERN LOWER MICHIGAN

CITY           SKY/WX    TMP DP  RH WIND       PRES   REMARKS
ALPENA         PTSUNNY   73  60  63 E10       30.11R
BEAVER ISLAND  MOSUNNY   72  60  66 W10G16    30.13R
BELLAIRE       MOSUNNY   73  56  55 NW8       30.13S
CADILLAC       MOSUNNY   75  55  49 W6        30.14R
CHARLEVOIX     MOSUNNY   71  60  67 W12       30.16S
FRANKFORT      MOSUNNY   71  57  62 SW7       30.14S
GAYLORD        PTSUNNY   73  52  47 W7G21     30.14S
GRAYLING       PTSUNNY   78  57  49 W10       30.14S
HARBOR SPRINGS MOSUNNY   71  60  68 W9        30.13S
HOUGHTON LAKE  SUNNY     76  56  49 W7        30.13F
MANISTEE       MOSUNNY   72  57  59 W7        30.14S
OSCODA         MOSUNNY   78  62  57 S9        30.08S
PELLSTON       MOSUNNY   73  57  57 W12       30.12R
ROGERS CITY    MOSUNNY   70  61  74 NE3       30.12S
TRAVERSE CITY  PTSUNNY   76  53  44 NW8       30.12S
$$
MIZ007>008-015-262200-
EASTERN UPPER MICHIGAN

CITY           SKY/WX    TMP DP  RH WIND       PRES   REMARKS
KINROSS        CLOUDY    68  59  73 N12       30.12R
MACKINAC ISLAN MOSUNNY   70  60  70 W12       30.11S
NEWBERRY       PTSUNNY   69  55  62 NW6       30.12R
S. S. MARIE    CLOUDY    71  57  61 NW12      30.11R
MUNISING         N/A     65  59  81 CALM      30.13F
$$
MIZ004>006-011>014-085-262200-
CENTRAL UPPER MICHIGAN

CITY           SKY/WX    TMP DP  RH WIND       PRES   REMARKS
MANISTIQUE     CLOUDY    69  60  74 CALM      30.11S
ESCANABA       CLOUDY    71  58  63 NE6       30.11F
MENOMINEE      PTSUNNY  N/A N/A N/A VRB3      30.12
SAWYER-GWINN   CLOUDY    63  57  82 CALM      30.15F
$$
MIZ001>003-009>011-084-262200-
WESTERN UPPER MICHIGAN

CITY           SKY/WX    TMP DP  RH WIND       PRES   REMARKS
IRON MOUNTAIN  PTSUNNY   72  51  47 NW9       30.13S
HOUGHTON       MOSUNNY   64  50  60 NW10      30.14R
COPPER HARBOR    N/A     64  54  69 N7        30.13S
IRONWOOD       CLOUDY    68  46  45 N5        30.17S
$$

ABBREVIATIONS USED IN REMARKS
   TC - TEMPERATURE IN CELSIUS
  WCI - WIND CHILL INDEX
   HX - HEAT INDEX
  VSB - VISIBILITY





USA.gov is the U.S. government's official web portal to all federal, state and local government web resources and services.